STARLINK-34056, 63841

Orbit data source: Space-Track

STARLINK-34056, 63841 is a payload satellite owned by SpaceX/Seattle (US) in LEO that was launched on Wed, 07 May 2025 UTC via an FALCON 9 launch vehicle from the Air Force Eastern Test Range (AFETR). Payload-class satellites include a variety of spacecraft equipped with specific instruments for various scientific and technological missions. These include communications satellites like Starlink; space stations such as the ISS; scientific satellites like the Hubble; Earth observation satellites from companies like Planet Labs, Umbra, and HawkEye 360; GPS; miniature CubeSats for education and research; and military/defense satellites.

Loading next visibility...
Identifier
63841, 2025-093F
Orbit
LEO
Country
Flag of USUS
Related business
Manufacturer
SpaceX/Seattle
Mission
Operational Commercial Communications
Bus & Motor
STARLINK V2MO, Unknown motor
Mass
575 kg wet, ~530 kg dry
Launch date (UTC)
2025-05-07 (7 months ago)
Launch vehicle
FALCON 9
Launch site
Air Force Eastern Test Range (AFETR)
Object type
Payload
Rocket body
Debris
Shape & HBR
Box + 2 Pan, 17.7 m
Radar Cross Section
36.964 m², Large (>1 m²)

Expand to show TLE details & history
Last TLE update: 1 day ago

TLE from 1 day ago
0 STARLINK-34056
1 63841U 25093F   25348.32059555  .00034620  00000-0  12618-2 0  9992
2 63841  42.9970 200.2414 0000435  24.8916 335.1956 15.27578553 34692
Epoch: 2025-12-14T07:41Z
TLE epoch observation values (Epoch: 2025-12-14T07:41:39.455Z)
Latitude
-0.00006°
Longitude
1.59175°
Altitude
482.558 km
Speed
7.626 km/s
True Right ascension
13h 20m 57s
True Declination
0° 00' 00"
Sunlit
Object was in daylight at epoch
Visualization orbit readout
Latitude
Unknown
Longitude
Unknown
Altitude
Unknown
Speed
Unknown
Apparent Right ascension
Unknown
Apparent Declination
Unknown
Sunlit
N/A
Visualization observer readout
Local Sidereal Time
13:23:43
Azimuth
Unknown
Elevation
Unknown
Doppler factor
Unknown
Orbital elements
Apogee altitude
485.298 km
Perigee altitude
484.701 km
Semi-major axis
6,863.136 km
Eccentricity
0.00004
Inclination
42.997°
RAAN
200.2414°
Arg. of periapsis
24.8916°
True anomaly
335.19351°
Mean anomaly
335.1956°
Eccentric anomaly
335.19455°
Mean motion
3.81733 °/min
Orbital period
94.31 mins
BSTAR
0.0012618
Loading maneuver chart data...
Computing Atmospheric mass density...
Loading historical data...
Loading historical data...
Loading historical data...
Loading historical data...
Loading historical data...
Loading historical data...
Loading historical data...

Documentation

Showing up to 5 results
|